{"data":{"norad_id":62554,"epoch":"2026-09-21T16:46:19.928928Z","epoch_age_seconds":67795,"freshness":"FRESH","line1":"1 62554U 25006A   26264.69884177  .00151274  00000+0  11598-2 0  9990","line2":"2 62554  43.0009  38.0531 0003123 292.3679  67.6858 15.70862696 97430","mean_motion":15.70862696,"eccentricity":0.0003123,"inclination_deg":43.0009,"raan_deg":38.0531,"arg_perigee_deg":292.3679,"mean_anomaly_deg":67.6858,"bstar":0.0011598,"rev_number":9743,"period_min":91.669374011285,"perigee_km":354.32698759962,"apogee_km":358.53339826832,"semimajor_km":6734.567192934,"source":"CELESTRAK","updated_at":"2026-09-22T09:00:49.625876Z"}}